Regional Weather Roundup
Issued by NWS

Home | Current Version | Previous Version | Text Only | Print | Product List | Glossary On
Versions: 1 2 3 4 5 6 7 8 9 10 11 12 13 14 15 16 17 18 19 20 21 22 23 24 25 26 27 28 29 30 31 32 33 34 35 36 37 38 39 40 41 42 43 44 45 46 47 48 49 50
987
ASUS43 KMPX 140010
RWRMN
WEATHER ROUNDUP FOR MINNESOTA
NATIONAL WEATHER SERVICE TWIN CITIES/CHANHASSEN MN
600 PM CST SAT FEB 13 2016


NOTE: "FAIR" INDICATES FEW OR NO CLOUDS BELOW 12,000 FEET WITH NO
SIGNIFICANT WEATHER AND/OR OBSTRUCTIONS TO VISIBILITY. N/A MEANS
CURRENT SKY AND/OR WEATHER CONDITIONS ARE NOT AVAILABLE.

MNZ060>063-068>070-140100-
   Twin Cities Metro

CITY           SKY/WX    TMP DP  RH WIND       PRES   REMARKS
TWIN CITIES    CLOUDY     7  -8  50 SE7       30.43F WCI  -5
6HR MIN TEMP:   5; 6HR MAX TEMP:  10;

ST PAUL        CLOUDY     7  -8  50 S7        30.45F WCI  -5
CRYSTAL        CLOUDY     9  -9  44 SE7       30.41F WCI  -2
BLAINE         PTCLDY     9  -9  43 SE7       30.41F WCI  -3
EDEN PRAIRIE   CLOUDY     7  -7  52 SE8       30.41F WCI  -6
6HR MIN TEMP:   5; 6HR MAX TEMP:  12;

SOUTH ST PAUL  CLOUDY     9 -10  43 S3        30.44F
LAKE ELMO      FAIR       9  -8  47 CALM      30.43F
$$
MNZ001>005-007-008-013>017-022>024-027-028-140100-
   Northwest Minnesota

CITY           SKY/WX    TMP DP  RH WIND       PRES   REMARKS
BEMIDJI        CLOUDY     6 -10  48 SE9       30.26F WCI  -8
HALLOCK        CLOUDY     9  -4  56 SE16      30.21F WCI  -9
ROSEAU         CLOUDY     7  -9  47 SE9       30.25F WCI  -7
WARROAD        CLOUDY     3  -9  55 SE7       30.27F WCI  -9
THIEF RVR FALL CLOUDY     9  -8  47 E10       30.23F WCI  -6
CROOKSTON      CLOUDY    12   0  57 SE20      30.23F WCI  -6
FOSSTON        CLOUDY     9  -9  43 SE9       30.23F WCI  -5
DETROIT LAKES  CLOUDY    10  -2  56 SE15G22   30.23F WCI  -6
MOORHEAD       CLOUDY    12   1  62 SE17G25   30.22F WCI  -5
PARK RAPIDS    CLOUDY     8  -9  45 SE14      30.26F WCI  -8
MAHNOMEN       CLOUDY    10  -5  50 SE17G23   30.23F WCI  -8
$$
MNZ006-009>011-018-025>026-140100-
   North Central Minnesota

CITY           SKY/WX    TMP DP  RH WIND       PRES   REMARKS
BAUDETTE       CLOUDY     3 -13  47 E6        30.26F WCI  -8
FLAG ISLAND    CLOUDY     1 -13  51 SE6       30.27F WCI -10
INTL FALLS     CLOUDY     0 -13  54 E8        30.32F WCI -14
6HR MIN TEMP:  -2; 6HR MAX TEMP:   7; 6HR PCP: TRACE;

WASKISH        CLOUDY     7 -11  43 SE3       30.29S
LONGVILLE      CLOUDY     7 -13  40 SE3       30.32F
GRAND RAPIDS   CLOUDY     7 -15  36 SE5       30.33F WCI  -2
CRANE LAKE     CLOUDY    -2 -11  65 CALM      30.38F
ORR            CLOUDY     3 -15  43 CALM      30.31F
COOK           CLOUDY     3 -15  43 CALM      30.34F
WALKER         FAIR       6 -12  43 SE6       30.29F WCI  -5
$$
MNZ012-019>021-037-140100-
   Northeast Minnesota

CITY           SKY/WX    TMP DP  RH WIND       PRES   REMARKS
DULUTH         CLOUDY     6 -12  43 SW5       30.35F WCI  -3
6HR MIN TEMP:   1; 6HR MAX TEMP:  11;

ELY            CLOUDY     0  -9  65 CALM      30.35S
HIBBING        CLOUDY     4 -15  41 SE3       30.34F
EVELETH        CLOUDY     3 -15  43 CALM      30.35F
DULUTH HARBOR  CLOUDY    10 -11  37 CALM      30.44F
TWO HARBORS    CLOUDY     9  -8  47 CALM      30.37F
SILVER BAY     CLEAR      5  -4  66 CALM      30.37S
GRAND MARAIS     N/A      2  -4  76 NW5       30.43F WCI  -8
G MARAIS ARPRT CLEAR      0  -8  71 CALM      30.32F
$$
MNZ029>031-032-039>041-046>048-054>057-064-140100-
   West Central Minnesota

CITY           SKY/WX    TMP DP  RH WIND       PRES   REMARKS
FERGUS FALLS   CLOUDY    12   0  57 SE16      30.26F WCI  -4
WHEATON        LGT SNOW  10   3  72 SE24G33   30.23F WCI -10
MORRIS         CLOUDY    10   0  61 SE24      30.24F WCI -10
ALEXANDRIA     CLOUDY    10  -1  61 SE15G23   30.26F WCI  -7
ELBOW LAKE     CLOUDY    11  -1  58 E21G28    30.24F WCI  -8
WADENA         CLOUDY     3  -8  60 SE10      30.27F WCI -12
GLENWOOD       CLOUDY    10   0  61 SE17      30.28F WCI  -7
APPLETON       CLOUDY    10   1  67 SE14      30.27F WCI  -5
BENSON         CLOUDY    10  -2  56 S15       30.28F WCI  -6
ORTONVILLE     CLOUDY    10   1  67 SE18G25   30.22F WCI  -8
MADISON        CLOUDY    12   3  67 SE21      30.25F WCI  -6
WILLMAR        CLOUDY    10   1  67 SE18      30.33F WCI  -8
$$
MNZ033>034-036-042>043-049>051-058-059-140100-
   Central Minnesota

CITY           SKY/WX    TMP DP  RH WIND       PRES   REMARKS
ST CLOUD       CLOUDY     7  -5  57 SE5       30.37F WCI  -2
6HR MIN TEMP:   1; 6HR MAX TEMP:   9;

SAUK CENTRE    CLOUDY     9  -2  61 SE10      30.32F WCI  -5
PAYNESVILLE    CLOUDY    10  -2  60 SE9       30.33F WCI  -4
AITKIN         CLOUDY     7 -15  36 S3        30.34F
PINE RIVER     CLOUDY     5  -9  51 SE6       30.34F WCI  -6
BRAINERD       CLOUDY     5 -11  47 CALM      30.34F
STAPLES        CLOUDY     5  -9  51 SE5       30.31F WCI  -4
LONG PRAIRIE   MOCLDY     9  -4  56 E10       30.31F WCI  -6
LITTLE FALLS   CLOUDY     9  -8  47 SE7       30.36F WCI  -3
LITCHFIELD     CLOUDY     9  -2  61 SE10      30.36F WCI  -6
BUFFALO        CLOUDY     9  -8  47 SE3       30.41S
MAPLE LAKE     CLOUDY     9  -4  57 SE3       30.39F
$$
MNZ037-044-045-052-053-140100-
   East Central Minnesota

CITY           SKY/WX    TMP DP  RH WIND       PRES   REMARKS
PRINCETON      CLOUDY     9  -8  47 E3        30.39F
MORA           CLOUDY     7  -8  51 CALM      30.42S
CAMBRIDGE      CLOUDY    10  -6  48 CALM      30.40S
RUSH CITY      CLOUDY     6  -9  50 SE3       30.42F
MOOSE LAKE     CLOUDY     7 -13  40 CALM      30.37S
HINCKLEY       FAIR       5  -8  56 CALM      30.40F
CLOQUET        CLOUDY     7 -18  30 CALM      30.36F
MCGREGOR       CLOUDY     9  -9  43 S6        30.36S WCI  -1
$$
MNZ071>073-080-081-089-090-097-098-140100-
   Southwest Minnesota

CITY           SKY/WX    TMP DP  RH WIND       PRES   REMARKS
MONTEVIDEO     CLOUDY     9   1  72 S16       30.30F WCI  -9
GRANITE FALLS  CLOUDY    11   3  70 SE17      30.31F WCI  -6
CANBY          CLOUDY    14   5  68 E18       30.24F WCI  -3
MARSHALL       CLOUDY    10   0  63 S18       30.27F WCI  -8
REDWOOD FALLS  CLOUDY    10   2  69 SE15      30.34F WCI  -7
OLIVIA         CLOUDY    10   1  67 SE12G20   30.33F WCI  -4
PIPESTONE      CLOUDY    10  -4  52 S16       30.19F WCI  -7
WINDOM         CLOUDY     9   0  66 SE13G18   30.29F WCI  -7
WORTHINGTON    CLOUDY     7  -2  66 SE16      30.27F WCI -11
JACKSON        CLOUDY    10   0  61 SE14      30.30F WCI  -5
TRACY          CLOUDY    10   2  69 S13G21    30.27F WCI  -5
SLAYTON        CLOUDY     8   1  73 SE15G21   30.24F WCI  -9
$$
MNZ065>067-074>077-082>085-091>093-140100-
   South Central Minnesota

CITY           SKY/WX    TMP DP  RH WIND       PRES   REMARKS
MANKATO        CLOUDY     9   0  66 SE15      30.38F WCI  -8
NEW ULM        CLOUDY     9   0  66 SE9       30.36F WCI  -5
ST JAMES       CLOUDY    10   3  72 SE13      30.36F WCI  -5
FAIRMONT       CLOUDY    10   0  61 SE15      30.33F WCI  -6
GLENCOE        CLOUDY    10   0  66 SE9       30.39F WCI  -3
FARIBAULT      CLOUDY     7  -4  61 SE9       30.41F WCI  -7
OWATONNA       CLOUDY     5  -6  61 SE10      30.40S WCI -10
WASECA         CLOUDY     7  -4  61 SE10      30.41F WCI  -8
ALBERT LEA     CLOUDY     7  -4  61 SE9       30.38F WCI  -7
$$
MNZ078>079-086>088-094>096-140100-
   Southeast Minnesota

CITY           SKY/WX    TMP DP  RH WIND       PRES   REMARKS
ROCHESTER      CLOUDY     1  -9  62 SE7       30.39F WCI -12
6HR MIN TEMP:   1; 6HR MAX TEMP:   6;

RED WING       CLOUDY     9 -15  33 SE5       30.45F WCI   0
STANTON        CLOUDY     8  -6  53 CALM      30.41F
DODGE CENTER   CLOUDY     0  -9  65 SE8       30.38F WCI -15
WINONA         CLOUDY    10  -6  48 CALM      30.48F
AUSTIN         CLOUDY     0  -6  78 SE5       30.40F WCI -10
PRESTON        CLOUDY     3 -11  51 SE5       30.41F WCI  -6
$$
ABBREVIATIONS USED IN REMARKS
   TC - TEMPERATURES IN CELSIUS
  WCI - WIND CHILL INDEX
   HX - HEAT INDEX
  VSB - VISIBILITY
$$




USA.gov is the U.S. government's official web portal to all federal, state and local government web resources and services.